Flag for U.S.A. Weather past 2 weeks in San Angelo, Texas, U.S.A.

Now
75 °F

Clear.


Feels Like: 78 °F
Forecast: 70 / 95 °F
Wind: 5 mph from Southeast

Location: Mathis Field

Current Time: Sep 2, 2015 at 12:25:56 AM

Latest Report: Sep 1, 2015 at 11:51 PM


Visibility: 10 mi

Pressure: 29.96 "Hg (28.08 "Hg at 561m altitude)

Humidity: 54%

Dew point: 57 °F

Location of San AngeloLocation

Historic Weather in San Angelo — Graph

°F

San Angelo temperature yesterday

Maximum temperature yesterday: 95 °F (at 3:51 PM)
Minimum temperature yesterday: 71 °F (at 6:51 AM)
Average temperature yesterday: 83 °F

Past Weeks' High & Low Weather Summary

 TemperatureHumidityPressure
High101 °F (Aug 18, 4:51 PM)90% (Aug 26, 3:51 AM)30.16 "Hg (Aug 26, 3:51 AM)
Low64 °F (Aug 31, 4:51 AM)15% (Aug 28, 5:51 PM)29.62 "Hg (Aug 18, 6:51 PM)
Average83 °F53%29.92 "Hg
* Reported Aug 17 10:51 PM — Sep 1 10:51 PM, San Angelo, Weather by CustomWeather, © 2015

Note: Actual official high and low records may vary slightly from our data, if they occured in-between our weather recording intervals... More about our weather records

Advertising

San Angelo weather history for previous 24 hours

 ConditionsComfort  
Time TempWeatherWind HumidityBarometerVisibility
10:51 PM
Tue, Sep 1
78 °FClear.8 mph46%29.94 "Hg10 mi
9:51 PM80 °FClear.6 mph42%29.93 "Hg10 mi
8:51 PM83 °FScattered clouds.6 mph41%29.90 "Hg10 mi
7:51 PM90 °FPartly sunny.6 mph31%29.88 "Hg10 mi
6:51 PM94 °FSunny.7 mph26%29.87 "Hg10 mi
5:51 PM95 °FPassing clouds.5 mph24%29.88 "Hg10 mi
3:51 PM95 °FScattered clouds.9 mph27%29.89 "Hg10 mi
2:51 PM94 °FScattered clouds.7 mph29%29.91 "Hg10 mi
1:51 PM92 °FPartly sunny.10 mph33%29.93 "Hg10 mi
12:51 PM91 °FPassing clouds.13 mph37%29.96 "Hg10 mi
11:51 AM88 °FSunny.8 mph43%29.98 "Hg10 mi
10:51 AM83 °FPassing clouds.9 mph55%30.00 "Hg10 mi
9:51 AM78 °FSunny.8 mph69%29.99 "Hg10 mi
8:51 AM74 °FSunny.8 mph76%29.98 "Hg10 mi
7:51 AM71 °FClear.3 mph81%29.96 "Hg10 mi
6:51 AM71 °FClear.3 mph81%29.95 "Hg10 mi
5:51 AM73 °FClear.8 mph76%29.94 "Hg10 mi
4:51 AM74 °FClear.5 mph74%29.94 "Hg10 mi
3:51 AM76 °FClear.15 mph69%29.93 "Hg10 mi
2:51 AM77 °FClear.14 mph64%29.92 "Hg10 mi
1:51 AM79 °FPassing clouds.15 mph52%29.93 "Hg10 mi
12:51 AM80 °FPassing clouds.12 mph45%29.92 "Hg10 mi
Weather by CustomWeather, © 2015

See weather overviewHow to use our weather pages